Samos, Greece

5:44 PM EET on November 21, 2019 (GMT +0200)
Samos

Weather History for LGSM - October, 2019

Change the Weather History Date:

Monday, October 21, 2019

  Actual Average Record
Temperature  
Mean Temperature 73 °F -  
Max Temperature 78 °F 67 °F 86 °F (2004)
Min Temperature 68 °F 53 °F 46 °F (2011)
Cooling Degree Days 8    
Growing Degree Days 23 (Base 50)    
Moisture  
Dew Point 60 °F    
Average Humidity 59    
Maximum Humidity 78    
Minimum Humidity 38    
Precipitation  
Precipitation 0.00 in 0.11 in - ()
Sea Level Pressure  
Sea Level Pressure 30.03 in    
Wind  
Wind Speed 8 mph ()    
Max Wind Speed 17 mph    
Max Gust Speed -    
Visibility 6.0 miles    
Events      
Averages and records for this station are not official NWS values.
T = Trace of Precipitation, MM = Missing Value Source: Averaged Metar Reports

Daily Weather History Graph

Daily Weather History Graph

Search for Another Location

Airport or City:

Astronomy

Oct. 21, 2019 Rise Set
Actual Time 7:25 AM EEST 6:27 PM EEST
Civil Twilight 6:59 AM EEST 6:54 PM EEST
Nautical Twilight 6:28 AM EEST 7:24 PM EEST
Astronomical Twilight 5:58 AM EEST 7:54 PM EEST
Moon No Moon Rise 2:24 PM EEST
Length of Visible Light 11h 54m
Length of Day
11h 01m
Waning Gibbous, 52% of the Moon is Illuminated
Oct 21
Waning Gibbous
Oct 21
Last Quarter
Oct 28
New
Nov 4
First Quarter
Nov 12
Full

Hourly Weather History & Observations

Time (EEST) Temp. Dew Point Humidity Pressure Visibility Wind Dir Wind Speed Gust Speed Precip Events Conditions
5:20 AM 69.8 °F 60.8 °F 73% 30.04 in - NNE 6.9 mph - N/A   Clear
5:50 AM 69.8 °F 60.8 °F 73% 30.04 in - NNW 6.9 mph - N/A   Clear
6:20 AM 69.8 °F 60.8 °F 73% 30.04 in - NNW 6.9 mph - N/A   Clear
6:50 AM 71.6 °F 60.8 °F 69% 30.04 in - North 4.6 mph - N/A   Clear
7:20 AM 71.6 °F 60.8 °F 69% 30.04 in - North 4.6 mph - N/A   Clear
7:50 AM 71.6 °F 64.4 °F 78% 30.04 in - NW 3.5 mph - N/A   Clear
8:20 AM 73.4 °F 64.4 °F 73% 30.04 in - NW 3.5 mph - N/A   Clear
8:50 AM 73.4 °F 64.4 °F 73% 30.06 in - North 5.8 mph - N/A   Clear
9:00 AM 74 °F 65 °F 65% 30.06 in 6 mi North 5.8 mph - -  
9:20 AM 73.4 °F 64.4 °F 73% 30.06 in - North 5.8 mph - N/A   Clear
9:50 AM 75.2 °F 64.4 °F 69% 30.06 in - North 11.5 mph - N/A   Clear
10:20 AM 75.2 °F 64.4 °F 69% 30.06 in - North 10.4 mph - N/A   Clear
10:50 AM 77.0 °F 59.0 °F 54% 30.09 in - North 9.2 mph - N/A   Clear
11:20 AM 77.0 °F 59.0 °F 54% 30.09 in - North 10.4 mph - N/A   Clear
12:00 PM 77 °F 59 °F 44% 30.10 in 6 mi NE 8.1 mph - -  
12:20 PM 77.0 °F 59.0 °F 54% 30.09 in - NE 8.1 mph - N/A   Clear
12:50 PM 77.0 °F 59.0 °F 54% 30.09 in - NNE 9.2 mph - N/A   Clear
1:20 PM 77.0 °F 62.6 °F 61% 30.09 in - NNE 9.2 mph - N/A   Clear
1:50 PM 77.0 °F 60.8 °F 57% 30.04 in - North 9.2 mph - N/A   Clear
2:20 PM 78.8 °F 60.8 °F 54% 30.04 in - North 10.4 mph - N/A   Clear
2:50 PM 78.8 °F 57.2 °F 47% 30.04 in - North 10.4 mph - N/A   Clear
3:00 PM 79 °F 58 °F 38% 30.04 in 6 mi North 10.4 mph - -  
3:20 PM 78.8 °F 57.2 °F 47% 30.01 in - North 10.4 mph - N/A   Clear
3:50 PM 78.8 °F 57.2 °F 47% 30.01 in - North 11.5 mph - N/A   Clear
4:20 PM 78.8 °F 57.2 °F 47% 30.01 in - North 13.8 mph - N/A   Clear
4:50 PM 78.8 °F 57.2 °F 47% 30.01 in - North 12.7 mph - N/A   Clear
5:20 PM 77.0 °F 59.0 °F 54% 30.01 in - North 13.8 mph - N/A   Clear
5:50 PM 75.2 °F 57.2 °F 53% 29.98 in - North 13.8 mph - N/A   Clear
6:00 PM 76 °F 58 °F 43% 29.99 in 6 mi North 13.8 mph - -  
6:20 PM 75.2 °F 57.2 °F 53% 29.98 in - North 11.5 mph - N/A   Clear
6:50 PM 73.4 °F 55.4 °F 53% 29.98 in - North 17.3 mph - N/A   Clear
7:20 PM 73.4 °F 55.4 °F 53% 29.98 in - North 12.7 mph - N/A   Clear
7:50 PM 73.4 °F 57.2 °F 57% 29.98 in - North 11.5 mph - N/A   Clear
8:20 PM 73.4 °F 59.0 °F 61% 29.98 in - North 11.5 mph - N/A   Clear
8:50 PM 71.6 °F 59.0 °F 64% 29.98 in - North 11.5 mph - N/A   Clear
9:00 PM 72 °F 60 °F 56% 29.99 in 6 mi North 11.5 mph - -  
9:20 PM 71.6 °F 59.0 °F 64% 29.98 in - North 10.4 mph - N/A   Clear
9:50 PM 71.6 °F 59.0 °F 64% 29.98 in - North 11.5 mph - N/A   Clear